Mosinee, WI

6:53 AM CDT on April 24, 2018 (GMT -0500)
Central Wisconsin

Weather History for KCWA - August, 2013

Change the Weather History Date:

Sunday, August 4, 2013

  Actual Average Record
Temperature  
Mean Temperature 58 °F -  
Max Temperature 71 °F 76 °F 89 °F (2014)
Min Temperature 46 °F 55 °F 46 °F (2013)
Degree Days  
Heating Degree Days 6    
Growing Degree Days 8 (Base 50)    
Moisture  
Dew Point 50 °F    
Average Humidity 79    
Maximum Humidity 100    
Minimum Humidity 4    
Precipitation  
Precipitation 0.00 in - - ()
Sea Level Pressure  
Sea Level Pressure 30.20 in    
Wind  
Wind Speed 4 mph (NE)    
Max Wind Speed 7 mph    
Max Gust Speed -    
Visibility 10 miles    
Events      
Averages and records for this station are not official NWS values.
T = Trace of Precipitation, MM = Missing Value Source: NWS Daily Summary

Daily Weather History Graph

Daily Weather History Graph

Search for Another Location

Airport or City:

Astronomy

Aug. 04, 2013 Rise Set
Actual Time 5:48 AM CDT 8:20 PM CDT
Civil Twilight 5:15 AM CDT 8:53 PM CDT
Nautical Twilight 4:33 AM CDT 9:34 PM CDT
Astronomical Twilight 3:46 AM CDT 10:21 PM CDT
Moon 3:48 AM CDT (8/4) 6:43 PM CDT (8/4)
Length of Visible Light 15h 38m
Length of Day
14h 32m
Waning Crescent, 4% of the Moon is Illuminated
Aug 4
Waning Crescent
Aug 6
New
Aug 14
First Quarter
Aug 20
Full
Aug 28
Last Quarter

Hourly Weather History & Observations

Time (CDT) Temp. Dew Point Humidity Pressure Visibility Wind Dir Wind Speed Gust Speed Precip Events Conditions
12:15 AM 57.2 °F 50.0 °F 77% 30.20 in 10.0 mi North 6.9 mph - N/A   Clear
12:35 AM 55.4 °F 50.0 °F 82% 30.20 in 10.0 mi North 5.8 mph - N/A   Clear
12:55 AM 55.4 °F 50.0 °F 82% 30.21 in 10.0 mi NNE 5.8 mph - N/A   Clear
1:15 AM 55.4 °F 50.0 °F 82% 30.22 in 10.0 mi NNE 5.8 mph - N/A   Clear
1:35 AM 55.4 °F 50.0 °F 82% 30.22 in 10.0 mi North 5.8 mph - N/A   Clear
1:55 AM 53.6 °F 50.0 °F 88% 30.22 in 10.0 mi NNE 4.6 mph - N/A   Clear
2:15 AM 51.8 °F 50.0 °F 94% 30.23 in 10.0 mi NNE 3.5 mph - N/A   Clear
2:35 AM 51.8 °F 50.0 °F 94% 30.23 in 10.0 mi Calm Calm - N/A   Clear
2:55 AM 51.8 °F 48.2 °F 88% 30.23 in 10.0 mi Calm Calm - N/A   Clear
3:15 AM 51.8 °F 50.0 °F 94% 30.24 in 10.0 mi Calm Calm - N/A   Clear
3:35 AM 50.0 °F 48.2 °F 94% 30.23 in 10.0 mi NNE 3.5 mph - N/A   Clear
3:55 AM 50.0 °F 50.0 °F 100% 30.22 in 10.0 mi NNE 5.8 mph - N/A   Clear
4:15 AM 51.8 °F 50.0 °F 94% 30.23 in 10.0 mi NNE 3.5 mph - N/A   Clear
4:35 AM 50.0 °F 50.0 °F 100% 30.23 in 10.0 mi NNE 3.5 mph - N/A   Clear
4:55 AM 50.0 °F 46.4 °F 87% 30.23 in 10.0 mi NNE 3.5 mph - N/A   Clear
5:15 AM 50.0 °F 50.0 °F 100% 30.23 in 10.0 mi North 4.6 mph - N/A   Clear
5:35 AM 46.4 °F 46.4 °F 100% 30.23 in 7.0 mi Calm Calm - N/A   Clear
5:50 AM 48.2 °F 48.2 °F 100% 30.23 in 10.0 mi NNE 4.6 mph - N/A   Clear
6:50 AM 51.8 °F 51.8 °F 100% 30.23 in 10.0 mi Calm Calm - N/A   Clear
7:50 AM 55.4 °F 51.8 °F 88% 30.26 in 10.0 mi NNE 3.5 mph - N/A   Clear
8:50 AM 60.8 °F 53.6 °F 77% 30.26 in 10.0 mi Calm Calm - N/A   Clear
10:50 AM 66.2 °F 50.0 °F 56% 30.27 in 10.0 mi Calm Calm - N/A   Clear
11:50 AM 68.0 °F 46.4 °F 46% 30.25 in 10.0 mi Calm Calm - N/A   Scattered Clouds
12:45 PM 69.8 °F 51.8 °F 53% 30.23 in 10.0 mi SW 6.9 mph - N/A   Mostly Cloudy
1:55 PM 68.0 °F 50.0 °F 52% 30.21 in 10.0 mi SW 4.6 mph - N/A   Mostly Cloudy
2:45 PM 69.8 °F 46.4 °F 43% 30.20 in 10.0 mi Variable 4.6 mph - N/A   Mostly Cloudy
3:50 PM 71.6 °F 48.2 °F 43% 30.18 in 10.0 mi Variable 3.5 mph - N/A   Scattered Clouds
4:45 PM 161.6 °F 48.2 °F 4% 30.18 in 10.0 mi Variable 4.6 mph - N/A   Scattered Clouds
5:50 PM 69.8 °F 46.4 °F 43% 30.16 in 10.0 mi Variable 3.5 mph - N/A   Scattered Clouds
6:50 PM 68.0 °F 50.0 °F 52% 30.14 in 10.0 mi Calm Calm - N/A   Scattered Clouds
7:45 PM 66.2 °F 53.6 °F 64% 30.14 in 10.0 mi Calm Calm - N/A   Mostly Cloudy
8:45 PM 62.6 °F 55.4 °F 77% 30.13 in 10.0 mi Calm Calm - N/A   Scattered Clouds
9:45 PM 59.0 °F 55.4 °F 88% 30.12 in 10.0 mi SSE 3.5 mph - N/A   Clear
10:15 PM 55.4 °F 53.6 °F 94% 30.12 in 10.0 mi ESE 4.6 mph - N/A   Clear
10:35 PM 55.4 °F 53.6 °F 94% 30.12 in 10.0 mi SSE 3.5 mph - N/A   Clear
10:55 PM 55.4 °F 53.6 °F 94% 30.12 in 10.0 mi Calm Calm - N/A   Clear
11:15 PM 55.4 °F 51.8 °F 88% 30.12 in 10.0 mi SSE 3.5 mph - N/A   Clear
11:35 PM 55.4 °F 51.8 °F 88% 30.12 in 10.0 mi SE 3.5 mph - N/A   Clear
11:55 PM 55.4 °F 51.8 °F 88% 30.12 in 10.0 mi Calm Calm - N/A   Clear